Precipitable_Water
0.69 0.70 0.72 0.71 0.56 0.54 0.47 0.55 0.74 0.71 0.73 0.86 0.87 0.78 0.78 0.90 0.74 0.58 1.14 1.14 1.25 1.41 1.55 1.56 1.54 1.52 1.49 1.47 1.39 1.25 1.21 1.20 1.16 1.13 1.12 1.10 1.10 1.13 1.16 1.19 1.19 1.17 1.17 1.16 1.15 1.13 1.11 1.12 1.13
0.69 0.69 0.62 0.62 0.50 0.44 0.49 0.66 0.67 0.75 0.86 0.94 0.89 0.88 0.92 0.78 0.95 1.00 1.02 1.21 1.31 1.35 1.43 1.51 1.54 1.53 1.49 1.38 1.26 1.23 1.26 1.22 1.19 1.17 1.12 1.11 1.13 1.17 1.22 1.22 1.23 1.25 1.30 1.32 1.31 1.31 1.29 1.23 1.19
0.64 0.70 0.57 0.48 0.43 0.40 0.46 0.68 0.76 0.86 0.97 0.90 0.96 1.12 1.05 0.91 1.04 0.99 1.14 1.27 1.30 1.28 1.40 1.44 1.45 1.41 1.31 1.23 1.23 1.20 1.20 1.22 1.15 1.13 1.13 1.18 1.22 1.25 1.27 1.29 1.33 1.34 1.38 1.40 1.39 1.33 1.26 1.31 1.32
0.61 0.58 0.53 0.37 0.38 0.45 0.54 0.73 0.87 0.85 0.91 1.06 1.06 0.91 1.17 1.28 1.08 1.13 1.24 1.30 1.24 1.23 1.28 1.28 1.25 1.20 1.20 1.21 1.27 1.23 1.23 1.21 1.20 1.15 1.19 1.24 1.29 1.33 1.35 1.36 1.37 1.42 1.37 1.30 1.22 1.14 1.16 1.24 1.30
0.55 0.48 0.34 0.35 0.42 0.50 0.67 0.83 0.86 0.84 0.90 0.99 1.05 0.87 0.99 1.30 1.35 1.26 1.26 1.29 1.13 1.16 1.26 1.26 1.27 1.30 1.32 1.33 1.28 1.32 1.24 1.25 1.26 1.27 1.31 1.30 1.24 1.26 1.29 1.30 1.29 1.27 1.23 1.19 1.15 1.14 1.11 1.15 1.21
0.39 0.40 0.33 0.36 0.47 0.62 0.79 0.89 0.93 0.92 0.96 0.98 0.95 0.90 0.99 1.36 1.21 1.27 1.25 1.21 1.27 1.23 1.31 1.37 1.43 1.44 1.46 1.40 1.38 1.42 1.41 1.43 1.41 1.38 1.34 1.34 1.32 1.28 1.26 1.24 1.19 1.16 1.12 1.09 1.09 1.10 1.08 1.09 1.13
0.37 0.36 0.36 0.37 0.46 0.58 0.75 0.95 0.89 0.95 0.91 0.90 1.04 0.80 1.04 1.16 1.32 1.41 1.32 1.33 1.34 1.33 1.35 1.41 1.43 1.42 1.44 1.45 1.48 1.46 1.40 1.33 1.32 1.32 1.31 1.29 1.27 1.24 1.22 1.18 1.13 1.11 1.10 1.07 1.04 1.01 1.02 1.06 1.11
0.38 0.35 0.32 0.34 0.42 0.50 0.79 0.94 1.06 0.95 0.85 1.12 1.12 0.81 0.86 1.15 1.35 1.34 1.33 1.38 1.38 1.37 1.38 1.36 1.46 1.49 1.50 1.51 1.54 1.51 1.45 1.41 1.39 1.35 1.31 1.28 1.24 1.19 1.18 1.14 1.12 1.11 1.08 1.03 0.95 0.91 0.90 0.95 0.99
0.41 0.26 0.26 0.31 0.33 0.54 0.84 0.82 0.96 1.04 0.92 1.04 1.16 1.12 1.15 1.29 1.30 1.23 1.27 1.32 1.30 1.31 1.38 1.49 1.47 1.47 1.47 1.47 1.44 1.47 1.50 1.48 1.39 1.35 1.29 1.24 1.17 1.12 1.12 1.13 1.11 1.03 0.95 0.92 0.87 0.81 0.78 0.79 0.83
0.31 0.23 0.22 0.29 0.46 0.58 0.77 0.85 0.82 0.79 0.86 0.97 1.09 1.24 1.28 1.26 1.21 1.15 1.22 1.17 1.18 1.25 1.39 1.47 1.45 1.40 1.42 1.39 1.38 1.38 1.36 1.34 1.33 1.30 1.20 1.16 1.15 1.12 1.09 1.07 0.96 0.87 0.82 0.78 0.74 0.70 0.67 0.71 0.73
0.22 0.18 0.22 0.32 0.50 0.63 0.66 0.72 0.83 0.76 0.75 0.93 0.91 1.03 1.19 1.24 1.24 1.22 1.29 1.20 1.19 1.33 1.37 1.43 1.40 1.40 1.36 1.31 1.31 1.30 1.29 1.29 1.28 1.24 1.20 1.16 1.14 1.09 0.97 0.83 0.78 0.73 0.69 0.62 0.59 0.58 0.58 0.61 0.67
0.19 0.22 0.23 0.41 0.63 0.68 0.63 0.76 0.72 0.79 0.81 1.03 1.07 1.14 1.19 1.15 1.19 1.24 1.28 1.14 1.22 1.30 1.31 1.32 1.33 1.32 1.28 1.24 1.21 1.24 1.24 1.23 1.22 1.21 1.17 1.09 1.00 0.85 0.76 0.70 0.64 0.57 0.56 0.55 0.54 0.52 0.52 0.56 0.61
0.18 0.19 0.21 0.34 0.53 0.70 0.76 0.66 0.66 0.75 0.95 1.07 1.15 1.21 1.12 1.13 1.20 1.30 1.28 1.23 1.27 1.20 1.22 1.24 1.29 1.26 1.18 1.14 1.17 1.20 1.22 1.25 1.24 1.15 1.02 0.90 0.80 0.72 0.66 0.58 0.52 0.51 0.52 0.51 0.49 0.47 0.47 0.49 0.53
0.20 0.19 0.22 0.42 0.53 0.64 0.65 0.69 0.73 0.85 1.01 1.02 1.13 1.11 1.12 1.10 1.14 1.19 1.16 1.18 1.18 1.16 1.16 1.23 1.22 1.16 1.08 1.09 1.13 1.17 1.21 1.18 1.11 0.94 0.87 0.80 0.74 0.66 0.54 0.46 0.43 0.40 0.40 0.40 0.39 0.35 0.34 0.39 0.47
0.20 0.17 0.19 0.33 0.41 0.53 0.72 0.60 0.62 0.86 0.98 0.94 1.02 1.11 1.11 1.10 1.09 1.07 1.15 1.17 1.16 1.15 1.18 1.16 1.15 1.08 1.03 1.10 1.10 1.08 1.08 0.97 0.88 0.81 0.76 0.71 0.63 0.53 0.46 0.40 0.32 0.33 0.34 0.33 0.31 0.28 0.28 0.34 0.42
0.19 0.20 0.14 0.25 0.39 0.56 0.61 0.38 0.68 0.88 0.88 0.90 1.00 1.10 1.10 1.12 1.10 1.13 1.17 1.19 1.19 1.17 1.17 1.14 1.05 0.98 0.93 0.94 0.92 0.84 0.81 0.80 0.79 0.76 0.70 0.62 0.54 0.45 0.39 0.33 0.27 0.26 0.27 0.27 0.24 0.21 0.23 0.30 0.38
0.19 0.13 0.16 0.24 0.41 0.49 0.52 0.42 0.69 0.88 0.89 0.88 0.99 1.06 1.07 1.05 1.10 1.11 1.16 1.20 1.21 1.20 1.13 0.98 0.93 0.87 0.83 0.81 0.80 0.78 0.76 0.74 0.73 0.69 0.62 0.51 0.43 0.38 0.33 0.29 0.24 0.23 0.23 0.24 0.22 0.20 0.26 0.28 0.30
0.13 0.17 0.21 0.22 0.32 0.45 0.45 0.45 0.67 0.80 0.86 0.88 0.97 1.03 1.04 1.03 1.05 1.11 1.15 1.22 1.23 1.15 1.03 0.90 0.86 0.83 0.81 0.78 0.80 0.78 0.73 0.69 0.63 0.55 0.48 0.45 0.40 0.36 0.30 0.27 0.22 0.21 0.21 0.22 0.21 0.21 0.30 0.31 0.32
0.24 0.23 0.21 0.25 0.32 0.37 0.42 0.47 0.61 0.76 0.84 0.84 0.92 1.00 1.03 1.07 1.14 1.16 1.14 1.16 1.13 1.05 0.92 0.84 0.81 0.80 0.78 0.76 0.72 0.68 0.61 0.58 0.52 0.49 0.47 0.44 0.38 0.31 0.28 0.25 0.22 0.21 0.20 0.22 0.23 0.22 0.28 0.30 0.34
0.27 0.26 0.23 0.27 0.35 0.42 0.44 0.47 0.65 0.77 0.79 0.84 0.92 0.98 1.04 1.11 1.10 1.11 1.09 1.08 1.05 0.98 0.88 0.81 0.80 0.78 0.78 0.75 0.69 0.64 0.61 0.59 0.54 0.51 0.50 0.44 0.36 0.32 0.27 0.23 0.22 0.22 0.20 0.22 0.23 0.22 0.21 0.27 0.32
0.27 0.26 0.23 0.24 0.32 0.44 0.44 0.44 0.59 0.76 0.87 0.92 1.01 1.07 1.11 1.11 1.08 1.08 1.01 1.04 1.04 0.96 0.85 0.78 0.79 0.76 0.75 0.69 0.66 0.66 0.66 0.62 0.57 0.55 0.53 0.49 0.45 0.39 0.29 0.24 0.23 0.22 0.23 0.21 0.23 0.23 0.20 0.18 0.22
0.25 0.30 0.28 0.27 0.26 0.21 0.39 0.23 0.44 0.61 0.70 0.83 0.91 0.98 1.02 1.12 1.16 1.12 1.03 1.00 1.00 0.94 0.84 0.80 0.80 0.75 0.73 0.68 0.65 0.64 0.63 0.60 0.63 0.60 0.60 0.60 0.58 0.52 0.41 0.28 0.25 0.24 0.25 0.24 0.24 0.25 0.23 0.21 0.18
0.30 0.34 0.31 0.29 0.27 0.26 0.30 0.27 0.33 0.54 0.56 0.67 0.81 0.90 0.99 1.10 1.12 1.05 0.99 1.00 1.01 0.94 0.80 0.78 0.78 0.75 0.73 0.69 0.71 0.71 0.70 0.73 0.74 0.71 0.65 0.63 0.61 0.57 0.51 0.38 0.31 0.27 0.26 0.26 0.25 0.25 0.24 0.23 0.21
0.38 0.34 0.33 0.32 0.29 0.21 0.25 0.27 0.30 0.44 0.47 0.57 0.74 0.85 0.93 1.03 1.12 1.04 1.00 1.03 0.99 0.96 0.78 0.76 0.77 0.76 0.75 0.72 0.75 0.76 0.76 0.78 0.76 0.73 0.67 0.65 0.62 0.59 0.56 0.47 0.32 0.29 0.27 0.27 0.27 0.27 0.26 0.24 0.24
0.36 0.33 0.25 0.22 0.22 0.19 0.25 0.25 0.30 0.43 0.52 0.55 0.57 0.65 0.81 1.00 1.07 0.93 0.94 0.93 0.93 0.91 0.75 0.75 0.78 0.76 0.77 0.76 0.77 0.79 0.80 0.81 0.79 0.76 0.71 0.67 0.63 0.60 0.58 0.51 0.35 0.29 0.27 0.28 0.28 0.27 0.26 0.26 0.25
0.29 0.30 0.26 0.19 0.19 0.19 0.29 0.25 0.30 0.46 0.56 0.62 0.67 0.78 0.91 1.07 1.04 0.92 0.92 0.93 0.92 0.90 0.77 0.76 0.78 0.80 0.81 0.80 0.80 0.81 0.83 0.83 0.83 0.82 0.78 0.72 0.67 0.62 0.60 0.52 0.38 0.31 0.28 0.27 0.29 0.28 0.28 0.28 0.27
0.28 0.26 0.34 0.28 0.30 0.25 0.29 0.36 0.48 0.56 0.59 0.66 0.74 0.84 0.88 0.99 1.00 0.86 0.88 0.91 0.88 0.88 0.80 0.74 0.78 0.81 0.82 0.81 0.82 0.82 0.85 0.85 0.85 0.85 0.82 0.78 0.72 0.66 0.62 0.55 0.40 0.33 0.30 0.28 0.29 0.28 0.28 0.28 0.27
0.36 0.36 0.28 0.32 0.22 0.20 0.26 0.29 0.32 0.43 0.49 0.59 0.71 0.88 0.97 1.01 0.92 0.82 0.84 0.85 0.85 0.87 0.87 0.78 0.78 0.80 0.84 0.84 0.84 0.84 0.87 0.89 0.88 0.87 0.83 0.80 0.75 0.71 0.64 0.54 0.42 0.36 0.32 0.30 0.29 0.28 0.28 0.26 0.27
0.37 0.34 0.34 0.34 0.31 0.24 0.23 0.26 0.42 0.43 0.49 0.57 0.75 0.91 0.93 0.93 0.88 0.80 0.83 0.86 0.87 0.89 0.87 0.83 0.79 0.82 0.85 0.87 0.87 0.87 0.87 0.89 0.88 0.87 0.86 0.82 0.75 0.71 0.67 0.57 0.45 0.39 0.34 0.32 0.29 0.27 0.27 0.26 0.27
0.44 0.39 0.37 0.29 0.27 0.33 0.31 0.29 0.52 0.55 0.65 0.69 0.76 0.87 0.95 1.00 0.95 0.91 0.85 0.85 0.84 0.84 0.86 0.82 0.82 0.82 0.86 0.91 0.91 0.90 0.90 0.90 0.89 0.88 0.87 0.81 0.75 0.73 0.67 0.59 0.49 0.42 0.37 0.34 0.29 0.27 0.27 0.26 0.26
Wind_Speed
7 9 7 8 7 8 5 4 7 7 7 10 8 8 7 13 7 6 4 4 3 3 3 3 3 2 2 2 3 3 3 3 4 4 4 4 4 4 4 5 5 5 4 4 4 4 4 4 4
6 6 6 7 8 7 6 5 5 6 6 9 9 9 11 12 8 5 4 3 3 3 3 2 2 1 1 0 1 2 3 2 2 3 3 4 4 4 5 5 5 4 4 4 4 5 5 5 6
5 6 5 5 7 4 4 3 3 6 6 9 9 11 11 10 6 5 3 3 3 3 3 2 2 1 1 1 1 2 2 3 2 3 3 4 4 4 4 5 5 6 6 6 6 6 7 7 8
5 5 5 6 6 6 3 4 4 3 6 8 7 12 10 10 6 4 3 3 3 3 3 2 2 2 1 1 2 3 2 2 4 4 4 4 4 4 5 5 6 7 6 5 6 7 8 9 9
5 4 7 7 7 7 5 5 4 4 6 7 9 10 10 9 5 4 3 3 3 3 4 3 2 1 0 2 2 4 2 4 5 4 4 5 4 4 5 5 6 6 6 7 7 9 10 10 10
6 5 6 7 8 8 6 3 6 6 7 8 10 10 10 6 4 3 3 3 3 3 4 4 3 2 2 1 2 3 3 4 5 5 5 5 4 3 4 5 5 6 7 8 8 9 11 11 11
6 6 5 5 6 6 4 5 6 6 7 11 7 10 6 4 3 3 3 3 3 3 3 3 3 2 3 2 2 3 4 5 5 5 5 2 1 2 3 5 6 7 8 9 10 11 11 11 9
4 5 7 6 6 6 4 6 6 8 12 8 9 8 4 0 2 2 2 2 2 3 3 3 3 2 3 3 3 3 4 5 5 6 5 1 1 2 4 5 6 7 9 9 9 9 10 10 9
4 5 7 8 6 5 4 6 8 12 9 12 12 8 1 2 2 1 2 2 2 2 2 2 3 3 3 3 4 4 5 6 5 5 4 3 2 3 4 6 7 8 9 9 10 11 11 10 10
4 6 8 9 6 6 6 7 7 10 10 11 8 5 1 2 2 2 2 2 2 2 1 2 2 3 4 5 6 6 6 4 3 2 3 3 3 4 6 7 8 9 9 10 11 12 12 12 11
7 7 9 11 8 5 6 8 9 7 10 9 3 1 1 2 2 2 1 2 2 1 1 2 1 3 4 6 7 5 4 3 1 1 2 2 4 6 7 8 9 10 11 11 12 12 12 12 12
8 9 10 9 7 7 6 7 8 11 11 5 3 0 1 2 2 2 2 3 2 0 1 2 2 3 6 6 5 4 3 2 1 1 2 3 4 6 8 9 10 10 11 11 12 12 12 12 12
9 11 13 11 9 9 7 9 8 8 5 3 1 1 2 3 3 3 3 3 1 1 1 2 2 4 5 5 4 3 2 1 2 1 2 4 6 7 8 9 9 10 11 11 12 13 13 13 13
12 14 13 11 9 9 8 8 9 7 3 3 2 3 3 4 4 4 5 4 2 1 1 1 2 3 4 3 3 4 4 4 2 2 3 5 6 8 9 9 10 11 12 12 13 13 13 13 13
14 15 15 14 14 12 8 11 10 7 4 4 4 4 4 6 6 6 6 5 3 2 2 2 2 2 3 2 2 3 3 3 2 3 4 5 7 8 8 9 11 11 12 13 13 14 14 13 13
15 13 14 12 10 13 13 15 12 9 7 6 5 5 5 7 7 7 7 7 5 3 3 2 1 1 2 3 3 2 2 2 2 3 4 6 7 8 9 10 11 12 12 13 14 15 14 14 12
15 14 14 16 14 14 17 16 15 13 11 9 8 7 7 8 8 9 9 8 7 5 4 3 2 1 1 1 1 2 1 2 2 3 4 6 7 9 10 11 11 12 13 14 15 15 14 12 12
16 15 15 17 17 18 19 19 16 15 14 12 10 9 9 10 11 10 10 10 9 7 5 4 3 3 2 1 1 1 1 2 2 4 5 6 8 9 10 11 11 12 13 14 15 15 14 13 12
20 19 20 18 21 19 20 19 18 16 15 15 13 12 12 12 11 11 11 12 11 9 7 7 5 5 4 4 3 3 2 3 3 4 6 7 9 10 10 10 11 12 13 14 15 15 14 13 13
23 23 26 23 19 18 18 18 19 19 19 18 17 15 15 14 13 12 13 13 13 12 10 9 7 6 6 5 5 4 3 4 4 5 6 8 9 9 10 10 11 12 13 14 15 15 15 16 16
25 23 23 22 19 19 17 19 21 21 20 19 19 19 18 17 16 15 15 15 15 14 13 11 9 8 7 6 6 5 4 4 5 6 7 8 9 10 10 11 12 13 14 15 16 16 17 17 18
26 24 25 22 20 21 19 22 22 24 23 22 21 21 20 19 18 18 18 17 17 16 15 13 11 10 9 8 7 7 6 6 7 7 8 8 9 10 11 12 13 14 15 16 17 18 18 18 18
26 27 26 25 23 21 21 20 22 22 25 25 24 23 23 23 21 20 20 20 19 18 17 15 13 12 11 10 9 8 7 7 7 8 8 9 9 10 12 13 14 15 16 17 18 19 19 19 19
22 23 22 22 22 25 24 22 22 19 23 24 25 26 27 26 23 22 22 21 20 19 19 17 16 14 13 12 12 11 10 9 9 9 9 10 11 12 13 14 16 16 17 18 19 20 20 21 20
21 19 20 21 21 26 21 21 24 23 22 24 26 27 28 26 23 22 22 22 21 20 20 19 18 16 16 15 15 14 13 12 12 11 11 12 12 13 15 16 17 17 18 19 20 21 22 22 22
22 20 18 20 19 22 19 21 21 21 23 25 24 22 22 24 23 23 24 23 23 22 22 21 20 18 18 18 17 16 16 15 15 14 14 14 14 15 15 17 18 19 20 21 22 22 23 23 23
20 20 22 22 21 20 21 19 18 16 17 15 14 19 22 22 22 22 22 23 23 23 23 22 21 20 20 19 19 19 18 18 18 17 16 16 16 17 18 19 20 20 21 22 23 24 24 24 24
23 22 21 20 20 24 19 20 19 19 19 17 14 17 20 20 19 20 21 22 23 23 23 23 23 22 21 21 21 21 20 20 20 19 19 19 19 19 19 20 21 22 23 24 24 25 25 25 25
21 23 24 24 22 24 24 22 21 22 21 18 17 19 21 20 19 19 20 21 22 22 22 23 24 24 23 23 22 22 22 22 22 22 22 22 21 22 22 23 23 24 25 25 26 26 26 26 26
25 26 27 27 25 24 23 24 20 18 17 16 16 16 20 20 19 19 19 20 21 23 23 23 22 23 23 22 22 23 23 23 24 24 24 24 24 24 24 24 24 25 26 27 27 27 27 27 27
Wind_Direction
11 5 20 25 30 40 44 21 42 50 32 8 20 18 19 355 353 352 47 50 76 98 107 114 119 127 116 75 62 50 42 36 41 42 38 33 29 27 23 22 22 23 22 20 15 10 360 351 346
360 10 17 28 38 41 8 38 49 18 33 46 40 24 4 11 19 52 37 62 79 95 96 108 117 124 135 55 27 22 22 19 22 16 14 8 6 3 2 2 0 356 352 348 342 337 331 325 324
3 15 33 29 23 24 22 36 358 49 47 17 14 7 1 7 33 19 51 73 83 76 80 87 111 117 136 47 10 3 4 4 349 344 342 342 338 340 342 347 351 345 335 325 320 321 318 314 310
16 21 22 20 17 8 40 53 64 51 359 4 14 8 6 1 7 14 77 80 77 70 71 75 92 112 108 8 351 340 332 336 337 329 328 336 334 339 342 340 338 331 334 327 325 323 319 315 312
16 12 14 13 3 9 35 81 37 16 5 5 351 356 359 356 30 71 80 82 79 68 74 68 78 109 71 334 2 353 338 332 335 324 322 317 321 332 335 343 345 346 344 331 321 318 316 312 309
17 11 19 12 10 20 31 17 5 359 4 355 358 358 353 16 45 71 80 84 73 71 76 70 69 61 14 332 356 359 348 340 335 329 325 308 305 326 349 351 353 350 347 344 330 322 319 312 310
26 30 30 22 16 17 351 354 353 360 349 343 345 350 352 12 35 86 73 75 71 73 83 73 61 50 17 332 342 345 343 341 345 337 331 320 320 345 350 353 356 352 345 338 330 327 323 322 321
7 16 7 6 354 350 345 351 358 343 344 351 338 338 329 298 103 83 73 89 79 79 94 82 60 33 27 37 19 11 356 352 356 355 339 326 14 349 347 351 353 346 342 343 343 341 335 331 328
341 2 347 332 328 324 319 336 329 334 342 335 327 333 26 141 145 108 109 111 99 98 103 68 31 34 10 358 346 337 332 327 336 1 38 84 43 13 4 352 345 343 343 339 339 336 334 330 323
323 325 316 316 322 317 312 323 327 332 333 339 355 11 92 160 171 157 151 141 125 120 103 356 3 360 352 337 332 326 326 325 335 33 58 63 32 13 352 348 347 346 341 339 334 332 331 331 325
308 308 311 317 317 313 315 319 323 334 323 315 320 339 199 185 186 190 161 143 143 117 320 324 316 341 343 336 331 323 330 334 347 53 37 7 356 350 348 347 343 340 337 336 335 336 334 333 328
303 305 319 305 304 308 309 320 325 318 323 315 306 192 214 200 209 202 181 162 142 57 326 321 314 323 332 336 338 338 339 322 177 32 356 346 349 348 344 340 341 341 341 339 338 338 338 335 330
294 301 308 297 292 303 307 318 315 334 350 335 323 271 246 223 223 219 189 173 177 295 302 317 313 336 342 347 356 358 352 114 141 44 25 352 343 342 345 345 345 343 342 339 336 336 334 335 332
290 296 298 288 282 286 297 305 313 313 331 338 299 291 251 229 217 211 200 202 244 268 269 308 327 347 0 16 31 53 80 96 92 32 7 355 346 343 345 346 346 346 344 341 339 337 334 332 333
289 294 294 272 273 281 282 302 297 285 280 298 286 269 246 233 223 222 219 222 244 251 253 295 320 353 21 53 61 68 84 88 69 25 8 355 350 350 349 347 347 345 345 342 340 339 336 331 330
289 290 292 289 268 269 283 290 281 270 261 278 280 265 252 238 238 237 231 232 240 247 248 265 264 36 65 81 83 82 81 69 48 14 359 353 351 349 347 347 347 347 346 345 341 338 334 330 327
286 279 279 289 266 284 280 288 270 266 262 271 273 262 254 244 249 245 236 232 235 242 235 222 204 196 159 105 94 79 58 27 15 360 349 350 347 345 346 345 346 347 347 345 342 340 339 338 335
272 277 278 280 280 281 277 278 263 263 260 263 267 262 257 247 248 245 238 233 232 231 226 218 222 234 229 224 236 291 322 344 348 349 345 342 343 343 344 346 348 348 347 345 344 344 344 341 337
277 274 278 279 281 277 277 269 256 264 264 263 259 258 254 245 247 246 238 231 228 228 226 225 231 233 235 248 251 259 275 296 320 336 339 340 341 343 345 345 346 345 344 343 342 341 340 338 332
271 274 278 280 276 278 279 273 265 265 265 259 255 254 249 243 242 245 239 232 228 228 229 230 229 227 238 245 249 257 258 285 305 323 334 338 340 342 343 343 341 341 340 340 339 335 331 328 321
267 269 272 269 277 280 277 276 263 263 265 262 257 256 250 241 239 242 238 233 230 229 228 227 228 232 241 240 244 247 262 271 293 308 323 331 337 341 342 339 338 338 337 336 335 333 329 324 325
265 266 268 266 269 272 266 274 266 260 258 257 252 251 248 243 241 242 237 233 230 228 228 229 233 239 239 236 239 242 259 272 287 301 312 319 326 332 336 334 334 334 333 332 332 331 329 324 321
263 266 263 264 265 267 266 277 274 254 255 253 250 250 247 244 239 240 234 231 229 227 228 230 234 239 236 236 240 248 259 273 285 298 306 312 318 322 325 328 330 330 329 329 329 328 327 325 322
268 271 269 268 264 264 263 260 268 257 255 256 251 252 250 243 241 238 232 230 229 229 228 231 233 238 236 237 242 247 255 265 274 285 295 303 309 314 319 321 323 325 325 325 325 326 325 324 321
260 264 270 269 264 267 265 261 265 260 261 255 255 253 244 235 234 234 230 228 229 229 228 231 234 239 239 243 245 248 255 262 267 276 285 295 300 307 312 317 319 321 322 322 322 323 323 321 320
256 250 252 262 264 271 268 264 269 265 266 266 262 249 234 227 229 233 230 228 229 230 229 231 236 240 242 244 247 250 256 262 267 274 281 290 298 303 307 313 316 318 319 320 319 320 320 319 319
258 252 256 263 267 272 266 270 272 267 274 270 253 235 227 226 229 231 228 228 230 231 232 234 237 242 244 246 249 252 257 261 266 271 278 285 292 300 302 308 312 314 316 317 317 317 317 317 316
252 255 258 262 260 265 267 263 263 268 269 261 252 229 221 223 229 230 228 228 231 233 236 237 240 243 247 249 251 254 259 263 265 270 275 280 287 294 299 304 308 311 313 315 315 315 314 314 314
258 256 253 259 252 263 269 268 266 263 265 246 241 226 217 222 227 230 229 231 232 235 238 240 241 244 248 250 252 255 260 263 266 269 274 279 284 290 294 300 304 308 310 311 312 312 312 312 312
255 254 249 251 257 259 262 269 266 264 262 247 237 226 221 226 230 229 231 232 236 238 239 241 242 244 247 250 252 255 260 264 267 271 274 277 282 287 291 295 299 304 307 308 310 310 309 310 311